TimeCST,TemperatureF,Dew PointF,Humidity,Sea Level PressureIn,VisibilityMPH,Wind Direction,Wind SpeedMPH,Gust SpeedMPH,PrecipitationIn,Events,Conditions,WindDirDegrees,DateUTC
12:15 AM,37.4,30.2,75,29.74,10.0,WNW,23.0,-,N/A,,Clear,290,2012-11-06 06:15:00
12:35 AM,37.4,30.2,75,29.73,10.0,WNW,21.9,27.6,N/A,,Clear,290,2012-11-06 06:35:00
12:55 AM,37.4,30.2,75,29.74,10.0,WNW,21.9,26.5,N/A,,Clear,300,2012-11-06 06:55:00
1:15 AM,35.6,30.2,81,29.75,10.0,WNW,20.7,26.5,N/A,,Clear,300,2012-11-06 07:15:00
1:35 AM,37.4,30.2,75,29.74,10.0,WNW,20.7,27.6,N/A,,Clear,290,2012-11-06 07:35:00
1:55 AM,35.6,30.2,81,29.75,10.0,WNW,19.6,25.3,N/A,,Clear,300,2012-11-06 07:55:00
2:15 AM,35.6,30.2,81,29.77,10.0,WNW,19.6,25.3,N/A,,Clear,300,2012-11-06 08:15:00
2:35 AM,35.6,28.4,75,29.77,10.0,WNW,20.7,26.5,N/A,,Clear,290,2012-11-06 08:35:00
2:55 AM,35.6,28.4,75,29.76,10.0,WNW,21.9,-,N/A,,Scattered Clouds,290,2012-11-06 08:55:00
3:15 AM,35.6,28.4,75,29.77,10.0,WNW,25.3,29.9,N/A,,Mostly Cloudy,290,2012-11-06 09:15:00
3:35 AM,35.6,28.4,75,29.77,10.0,WNW,20.7,28.8,N/A,,Mostly Cloudy,290,2012-11-06 09:35:00
3:55 AM,37.4,28.4,70,29.77,10.0,WNW,21.9,26.5,N/A,,Overcast,290,2012-11-06 09:55:00
4:15 AM,37.4,28.4,70,29.76,10.0,WNW,24.2,29.9,N/A,,Overcast,290,2012-11-06 10:15:00
4:35 AM,37.4,28.4,70,29.77,10.0,WNW,23.0,29.9,N/A,,Overcast,300,2012-11-06 10:35:00
4:55 AM,37.4,28.4,70,29.77,10.0,WNW,23.0,28.8,N/A,,Overcast,300,2012-11-06 10:55:00
5:15 AM,37.4,28.4,70,29.78,10.0,WNW,21.9,27.6,N/A,,Overcast,290,2012-11-06 11:15:00
5:35 AM,37.4,28.4,70,29.79,10.0,WNW,23.0,27.6,N/A,,Overcast,300,2012-11-06 11:35:00
5:55 AM,35.6,28.4,75,29.80,10.0,WNW,20.7,29.9,N/A,,Overcast,300,2012-11-06 11:55:00
6:15 AM,35.6,28.4,75,29.80,10.0,WNW,24.2,28.8,N/A,,Overcast,300,2012-11-06 12:15:00
6:35 AM,35.6,28.4,75,29.81,10.0,WNW,21.9,27.6,N/A,,Overcast,300,2012-11-06 12:35:00
6:55 AM,35.6,28.4,75,29.82,10.0,WNW,20.7,28.8,N/A,,Overcast,300,2012-11-06 12:55:00
7:15 AM,35.6,28.4,75,29.83,10.0,NW,23.0,29.9,N/A,,Overcast,310,2012-11-06 13:15:00
7:35 AM,35.6,28.4,75,29.84,10.0,WNW,24.2,32.2,N/A,,Overcast,300,2012-11-06 13:35:00
7:55 AM,35.6,28.4,75,29.85,10.0,WNW,21.9,26.5,N/A,,Overcast,300,2012-11-06 13:55:00
8:15 AM,35.6,28.4,75,29.86,10.0,WNW,21.9,29.9,N/A,,Overcast,300,2012-11-06 14:15:00
8:35 AM,35.6,28.4,75,29.87,10.0,WNW,21.9,-,N/A,,Overcast,300,2012-11-06 14:35:00
8:55 AM,35.6,28.4,75,29.88,10.0,WNW,24.2,27.6,N/A,,Overcast,300,2012-11-06 14:55:00
9:15 AM,35.6,28.4,75,29.89,10.0,NW,19.6,27.6,N/A,,Overcast,310,2012-11-06 15:15:00
9:35 AM,35.6,28.4,75,29.89,10.0,NW,20.7,26.5,N/A,,Overcast,310,2012-11-06 15:35:00
9:55 AM,35.6,28.4,75,29.90,10.0,WNW,20.7,-,N/A,,Overcast,300,2012-11-06 15:55:00
10:15 AM,37.4,28.4,70,29.90,10.0,WNW,18.4,25.3,N/A,,Overcast,300,2012-11-06 16:15:00
10:35 AM,37.4,28.4,70,29.90,10.0,WNW,20.7,-,N/A,,Overcast,300,2012-11-06 16:35:00
10:55 AM,37.4,30.2,75,29.91,10.0,NW,19.6,-,N/A,,Mostly Cloudy,310,2012-11-06 16:55:00
11:15 AM,39.2,30.2,70,29.91,10.0,NW,20.7,26.5,N/A,,Partly Cloudy,310,2012-11-06 17:15:00
11:35 AM,39.2,30.2,70,29.93,10.0,NW,19.6,24.2,N/A,,Partly Cloudy,310,2012-11-06 17:35:00
11:55 AM,39.2,30.2,70,29.92,10.0,NW,19.6,25.3,N/A,,Mostly Cloudy,310,2012-11-06 17:55:00
12:15 PM,41.0,30.2,65,29.92,10.0,WNW,25.3,28.8,N/A,,Mostly Cloudy,300,2012-11-06 18:15:00
12:35 PM,42.8,32.0,66,29.93,10.0,NW,25.3,28.8,N/A,,Overcast,310,2012-11-06 18:35:00
12:55 PM,42.8,32.0,66,29.93,10.0,WNW,23.0,28.8,N/A,,Mostly Cloudy,300,2012-11-06 18:55:00
1:15 PM,42.8,32.0,66,29.93,10.0,WNW,20.7,-,N/A,,Mostly Cloudy,300,2012-11-06 19:15:00
1:35 PM,42.8,32.0,66,29.94,10.0,NW,21.9,29.9,N/A,,Partly Cloudy,310,2012-11-06 19:35:00
1:55 PM,42.8,32.0,66,29.95,10.0,NW,20.7,-,N/A,,Partly Cloudy,310,2012-11-06 19:55:00
2:15 PM,42.8,32.0,66,29.95,10.0,NW,19.6,25.3,N/A,,Mostly Cloudy,310,2012-11-06 20:15:00
2:35 PM,42.8,32.0,66,29.96,10.0,NW,20.7,26.5,N/A,,Partly Cloudy,310,2012-11-06 20:35:00
2:55 PM,42.8,33.8,70,29.96,10.0,NW,16.1,24.2,N/A,,Partly Cloudy,310,2012-11-06 20:55:00
3:15 PM,42.8,32.0,66,29.97,10.0,NW,18.4,23.0,N/A,,Partly Cloudy,310,2012-11-06 21:15:00
3:35 PM,42.8,32.0,66,29.96,10.0,NW,17.3,-,N/A,,Clear,310,2012-11-06 21:35:00
3:55 PM,42.8,32.0,66,29.96,10.0,NW,17.3,-,N/A,,Clear,310,2012-11-06 21:55:00
4:15 PM,42.8,32.0,66,29.97,10.0,NW,18.4,-,N/A,,Clear,310,2012-11-06 22:15:00
4:35 PM,41.0,32.0,70,29.98,10.0,WNW,13.8,-,N/A,,Clear,300,2012-11-06 22:35:00
4:55 PM,41.0,30.2,65,29.98,10.0,WNW,13.8,-,N/A,,Clear,300,2012-11-06 22:55:00
5:15 PM,39.2,30.2,70,29.99,10.0,WNW,15.0,-,N/A,,Clear,300,2012-11-06 23:15:00
5:35 PM,39.2,30.2,70,29.99,10.0,WNW,13.8,-,N/A,,Clear,290,2012-11-06 23:35:00
5:55 PM,37.4,30.2,75,30.00,10.0,WNW,13.8,-,N/A,,Clear,300,2012-11-06 23:55:00
6:15 PM,37.4,30.2,75,30.01,10.0,WNW,12.7,-,N/A,,Partly Cloudy,300,2012-11-07 00:15:00
6:35 PM,37.4,30.2,75,30.01,10.0,WNW,15.0,-,N/A,,Partly Cloudy,300,2012-11-07 00:35:00
6:55 PM,37.4,30.2,75,30.01,10.0,NW,13.8,-,N/A,,Mostly Cloudy,310,2012-11-07 00:55:00
7:15 PM,37.4,30.2,75,30.01,10.0,WNW,12.7,-,N/A,,Overcast,300,2012-11-07 01:15:00
7:35 PM,39.2,30.2,70,30.02,10.0,NW,13.8,-,N/A,,Overcast,310,2012-11-07 01:35:00
7:55 PM,39.2,30.2,70,30.02,10.0,NW,11.5,-,N/A,,Overcast,310,2012-11-07 01:55:00
8:15 PM,37.4,30.2,75,30.03,10.0,NW,9.2,-,N/A,,Overcast,310,2012-11-07 02:15:00
8:35 PM,37.4,30.2,75,30.03,10.0,WNW,10.4,-,N/A,,Overcast,300,2012-11-07 02:35:00
8:55 PM,39.2,28.4,65,30.02,10.0,NNW,12.7,-,N/A,,Overcast,330,2012-11-07 02:55:00
9:15 PM,39.2,30.2,70,30.02,10.0,NW,8.1,-,N/A,,Overcast,320,2012-11-07 03:15:00
9:35 PM,37.4,30.2,75,30.03,10.0,WNW,8.1,-,N/A,,Overcast,300,2012-11-07 03:35:00
9:55 PM,37.4,30.2,75,30.03,10.0,WNW,6.9,-,N/A,,Overcast,300,2012-11-07 03:55:00
10:15 PM,35.6,28.4,75,30.03,10.0,NW,5.8,-,N/A,,Mostly Cloudy,310,2012-11-07 04:15:00
10:35 PM,33.8,28.4,81,30.03,10.0,WNW,8.1,-,N/A,,Scattered Clouds,300,2012-11-07 04:35:00
10:55 PM,33.8,28.4,81,30.03,10.0,NW,6.9,-,N/A,,Clear,310,2012-11-07 04:55:00
11:15 PM,33.8,28.4,81,30.03,10.0,NW,6.9,-,N/A,,Clear,320,2012-11-07 05:15:00
11:35 PM,32.0,26.6,80,30.03,10.0,NW,4.6,-,N/A,,Clear,310,2012-11-07 05:35:00
11:55 PM,32.0,26.6,80,30.04,10.0,NW,5.8,-,N/A,,Clear,310,2012-11-07 05:55:00